Regional Weather Roundup
Issued by NWS

Home | Current Version | Previous Version | Text Only | Print | Product List | Glossary On
Versions: 1 2 3 4 5 6 7 8 9 10 11 12 13 14 15 16 17 18 19 20 21 22 23 24 25 26 27 28 29 30 31 32 33 34 35 36 37 38 39 40 41 42 43 44 45 46 47 48 49 50
647
ASUS44 KLIX 290701
RWRLA
LOUISIANA WEATHER ROUNDUP
NATIONAL WEATHER SERVICE NEW ORLEANS LA
100 AM CST SAT NOV 29 2014

NOTE: "FAIR" INDICATES FEW OR NO CLOUDS BELOW 12,000 FEET WITH NO
      SIGNIFICANT WEATHER AND/OR OBSTRUCTIONS TO VISIBILITY.
      SKY/WX - SKY CONDITION AND SIGNIFICANT WEATHER.
      TMP - AIR TEMPERATURE.    DP   - DEWPOINT TEMPERATURE.
      RH  - RELATIVE HUMIDITY.  PRES - PRESSURE.
      HX  - HEAT INDEX.         WCI  - WIND CHILL INDEX.

*  THESE STATIONS ARE NOT NWS OR FAA STATIONS AND ARE NOT UNDER
   NWS QUALITY CONTROL.

LAZ040-048-061>063-065-066-069-290800-
SOUTHEAST LOUISIANA

CITY           SKY/WX    TMP DP  RH WIND       PRES   REMARKS
N.O. AUDUBON     N/A     50  49  97 MISG        N/A
N.O. INTL ARPT PTCLDY    50  45  83 SE7       30.24S
N.O. LAKEFRONT CLEAR     50  46  86 SE8       30.25F
N.O. DOWNTOWN* FAIR      55  45  67 S3        30.25S
SLIDELL        PTCLDY    37  34  89 CALM      30.23F
BATON ROUGE    CLEAR     48  44  86 SE6       30.20F
BOOTHVILLE     CLEAR     54  51  90 SE5       30.25F
BELLE CHASSE   PTCLDY    41  37  86 CALM      30.24F
BOGALUSA*        N/A     37  35  91 N3        30.25F
NEW ROADS*     NOT AVBL
GONZALES*      NOT AVBL
HAMMOND*       NOT AVBL
HOUMA*         NOT AVBL
PORT FOURCHON* CLOUDY    63  55  77 S5        30.26F

$$

LAZ041-044-053-054-290800-
SOUTHWEST LOUISIANA

CITY           SKY/WX    TMP DP  RH WIND       PRES   REMARKS
LAKE CHARLES   FOG       53  53 100 SE6       30.15F VSB 1/4
LAFAYETTE      CLEAR     52  50  93 S3        30.19F
PATTERSON      CLEAR     52  48  87 SE6       30.23F
SALT POINT       N/A     57  51  80 E6        30.20F
NEW IBERIA     CLEAR     51  49  92 SE7       30.19F
CHENAULT AIRPK NOT AVBL

$$

LAZ027-028-290800-
CENTRAL LOUISIANA

CITY           SKY/WX    TMP DP  RH WIND       PRES   REMARKS
FORT POLK      CLOUDY    56  55  96 S12       30.13F
ALEXANDRIA INT CLOUDY    51  50  96 SE8       30.14F
ALEXANDRIA     CLEAR     48  47  96 CALM      30.16S

$$

LAZ001-002-290800-
NORTHWEST LOUISIANA

CITY           SKY/WX    TMP DP  RH WIND       PRES   REMARKS
SHREVEPORT     CLOUDY    58  54  86 S10       30.06F
BARKSDALE AFB  CLOUDY    55  55  99 S13       30.07F
DTN SHREVEPORT CLOUDY    57  53  86 S13       30.06F

$$

LAZ014-016-290800-
NORTHEAST LOUISIANA

CITY           SKY/WX    TMP DP  RH WIND       PRES   REMARKS
MONROE         CLEAR     50  46  86 S8        30.13F
TALLULAH       CLEAR     46  39  76 S9        30.16F

$$




USA.gov is the U.S. government's official web portal to all federal, state and local government web resources and services.